When you browse on this site, cookies collect data to enhance your experience and personalize the content and advertising you see.
Visit our Privacy Policy to learn more. By continuing to use the site, you agree to this use of cookies and data.
  • în România
  • Lista ţărilor
  • Pe 7 zile
  • Temperatura apei
  • Hartă satelitară
  • Meteo pe hartă
  • Widget-uri
  • user-avatar
    Intrare

    Meteo pe oră la Turksad

    Astăzi, 16 Ianuarie, Miercuri

    Timp Temperatura Precipitaţii Vânt Presiune Umiditate
    00:00 +3°C° 0 mm 5 m/s 748 mmHg 96%
    01:00 +3°C° 0 mm 5 m/s 747 mmHg 96%
    02:00 +2°C° 0 mm 5 m/s 747 mmHg 96%
    03:00 +3°C° 0 mm 4 m/s 746 mmHg 99%
    04:00 +3°C° 0.1 mm 3 m/s 746 mmHg 99%
    05:00 +4°C° 0.1 mm 2 m/s 746 mmHg 99%
    06:00 +5°C° 0.1 mm 1 m/s 746 mmHg 98%
    07:00 +5°C° 0 mm 1 m/s 746 mmHg 98%
    08:00 +4°C° 0 mm 2 m/s 746 mmHg 99%
    09:00 +4°C° 0 mm 2 m/s 746 mmHg 99%
    10:00 +4°C° 0 mm 2 m/s 746 mmHg 95%
    11:00 +5°C° 0 mm 2 m/s 746 mmHg 91%
    12:00 +6°C° 0 mm 2 m/s 746 mmHg 87%
    13:00 +5°C° 0 mm 4 m/s 747 mmHg 82%
    14:00 +5°C° 0 mm 6 m/s 747 mmHg 77%
    15:00 +5°C° 0 mm 8 m/s 748 mmHg 72%
    16:00 +3°C° 0 mm 9 m/s 749 mmHg 74%
    17:00 +1°C° 0 mm 10 m/s 750 mmHg 76%
    18:00 -1°C° 0 mm 11 m/s 751 mmHg 77%
    19:00 -2°C° 0 mm 10 m/s 752 mmHg 77%
    20:00 -1°C° 0 mm 9 m/s 753 mmHg 77%
    21:00 -2°C° 0 mm 8 m/s 754 mmHg 77%
    22:00 -2°C° 0 mm 7 m/s 754 mmHg 76%
    23:00 -2°C° 0 mm 7 m/s 755 mmHg 74%

    Mâine, 17 Ianuarie, Joi

    Timp Temperatura Precipitaţii Vânt Presiune Umiditate
    00:00 -2°C° 0 mm 6 m/s 755 mmHg 73%
    01:00 -2°C° 0 mm 5 m/s 756 mmHg 73%
    02:00 -2°C° 0 mm 5 m/s 756 mmHg 73%
    03:00 -2°C° 0 mm 4 m/s 756 mmHg 73%
    04:00 -2°C° 0 mm 4 m/s 757 mmHg 73%
    05:00 -2°C° 0 mm 4 m/s 757 mmHg 74%
    06:00 -2°C° 0 mm 4 m/s 758 mmHg 74%
    07:00 -2°C° 0 mm 4 m/s 758 mmHg 73%
    08:00 -2°C° 0 mm 4 m/s 759 mmHg 73%
    09:00 -2°C° 0 mm 4 m/s 759 mmHg 72%
    10:00 -2°C° 0 mm 4 m/s 760 mmHg 68%
    11:00 0°C° 0 mm 3 m/s 760 mmHg 65%
    12:00 0°C° 0 mm 3 m/s 760 mmHg 61%
    13:00 +1°C° 0 mm 3 m/s 761 mmHg 60%
    14:00 +1°C° 0 mm 3 m/s 761 mmHg 59%
    15:00 +1°C° 0 mm 3 m/s 761 mmHg 57%
    16:00 +1°C° 0 mm 2 m/s 762 mmHg 60%
    17:00 +1°C° 0 mm 2 m/s 762 mmHg 63%
    18:00 -1°C° 0 mm 2 m/s 763 mmHg 66%
    19:00 -1°C° 0 mm 2 m/s 763 mmHg 68%
    20:00 -2°C° 0 mm 2 m/s 763 mmHg 70%
    21:00 -2°C° 0 mm 2 m/s 764 mmHg 72%
    22:00 0°C° 0 mm 1 m/s 764 mmHg 73%
    23:00 0°C° 0 mm 1 m/s 764 mmHg 74%

    Poimâine, 18 Ianuarie, Vineri

    Timp Temperatura Precipitaţii Vânt Presiune Umiditate
    00:00 -2°C° 0 mm 0 m/s 764 mmHg 75%
    01:00 -2°C° 0 mm 0 m/s 765 mmHg 74%
    02:00 -2°C° 0 mm 0 m/s 765 mmHg 73%
    03:00 0°C° 0 mm 1 m/s 765 mmHg 73%
    04:00 0°C° 0 mm 1 m/s 765 mmHg 72%
    05:00 0°C° 0 mm 1 m/s 765 mmHg 70%
    06:00 0°C° 0 mm 1 m/s 765 mmHg 69%
    07:00 -2°C° 0 mm 2 m/s 765 mmHg 68%
    08:00 -1°C° 0 mm 2 m/s 765 mmHg 66%
    09:00 -1°C° 0 mm 2 m/s 765 mmHg 64%
    10:00 +1°C° 0 mm 2 m/s 765 mmHg 61%
    11:00 +2°C° 0 mm 2 m/s 765 mmHg 57%
    12:00 +3°C° 0 mm 2 m/s 764 mmHg 54%
    13:00 +4°C° 0 mm 2 m/s 764 mmHg 54%
    14:00 +4°C° 0 mm 2 m/s 764 mmHg 55%
    15:00 +6°C° 0 mm 1 m/s 763 mmHg 55%
    16:00 +3°C° 0 mm 2 m/s 763 mmHg 60%
    17:00 +2°C° 0 mm 2 m/s 764 mmHg 65%
    18:00 +1°C° 0 mm 2 m/s 764 mmHg 70%
    19:00 +1°C° 0 mm 2 m/s 764 mmHg 70%
    20:00 +1°C° 0 mm 2 m/s 764 mmHg 71%
    21:00 -1°C° 0 mm 3 m/s 764 mmHg 71%
    22:00 -1°C° 0 mm 2 m/s 763 mmHg 71%
    23:00 -1°C° 0 mm 2 m/s 763 mmHg 72%

    19 Ianuarie, Sâmbătă

    Timp Temperatura Precipitaţii Vânt Presiune Umiditate
    00:00 -1°C° 0 mm 2 m/s 763 mmHg 72%
    01:00 -1°C° 0 mm 2 m/s 763 mmHg 70%
    02:00 -1°C° 0 mm 2 m/s 763 mmHg 69%
    03:00 -1°C° 0 mm 3 m/s 763 mmHg 68%
    04:00 -1°C° 0 mm 3 m/s 763 mmHg 66%
    05:00 -1°C° 0 mm 3 m/s 762 mmHg 65%
    06:00 -1°C° 0 mm 3 m/s 762 mmHg 63%
    07:00 0°C° 0 mm 3 m/s 763 mmHg 60%
    08:00 0°C° 0 mm 3 m/s 763 mmHg 58%
    09:00 +1°C° 0 mm 3 m/s 763 mmHg 55%
    10:00 +2°C° 0 mm 3 m/s 763 mmHg 51%
    11:00 +4°C° 0 mm 3 m/s 763 mmHg 47%
    12:00 +5°C° 0 mm 4 m/s 763 mmHg 42%
    13:00 +5°C° 0 mm 3 m/s 763 mmHg 48%
    14:00 +5°C° 0 mm 3 m/s 762 mmHg 53%
    15:00 +5°C° 0 mm 3 m/s 762 mmHg 59%
    16:00 +4°C° 0 mm 3 m/s 762 mmHg 65%
    17:00 +3°C° 0 mm 3 m/s 762 mmHg 72%
    18:00 +3°C° 0 mm 2 m/s 762 mmHg 78%
    19:00 +3°C° 0 mm 2 m/s 763 mmHg 79%
    20:00 +1°C° 0 mm 3 m/s 763 mmHg 81%
    21:00 +1°C° 0 mm 3 m/s 763 mmHg 82%
    22:00 +1°C° 0 mm 3 m/s 763 mmHg 83%
    23:00 +2°C° 0 mm 2 m/s 763 mmHg 84%

    20 Ianuarie, Duminică

    Timp Temperatura Precipitaţii Vânt Presiune Umiditate
    00:00 +2°C° 0 mm 2 m/s 763 mmHg 85%
    01:00 +2°C° 0 mm 2 m/s 763 mmHg 87%
    02:00 +2°C° 0 mm 2 m/s 763 mmHg 88%
    03:00 +2°C° 0 mm 2 m/s 764 mmHg 90%
    04:00 +2°C° 0.1 mm 2 m/s 764 mmHg 90%
    05:00 +1°C° 0.1 mm 2 m/s 764 mmHg 91%
    06:00 +1°C° 0.1 mm 2 m/s 764 mmHg 91%
    07:00 +1°C° 0.1 mm 2 m/s 765 mmHg 89%
    08:00 -1°C° 0.1 mm 2 m/s 765 mmHg 86%
    09:00 -1°C° 0.1 mm 2 m/s 766 mmHg 84%
    10:00 -1°C° 0 mm 2 m/s 766 mmHg 80%
    11:00 +1°C° 0 mm 2 m/s 765 mmHg 76%
    12:00 +1°C° 0 mm 2 m/s 765 mmHg 72%
    13:00 +1°C° 0 mm 2 m/s 765 mmHg 70%
    14:00 +2°C° 0 mm 2 m/s 765 mmHg 68%
    15:00 +2°C° 0 mm 2 m/s 765 mmHg 66%
    16:00 +1°C° 0 mm 2 m/s 765 mmHg 68%
    17:00 +1°C° 0 mm 2 m/s 765 mmHg 70%
    18:00 0°C° 0 mm 3 m/s 765 mmHg 73%
    19:00 -1°C° 0 mm 3 m/s 765 mmHg 74%
    20:00 -1°C° 0 mm 3 m/s 765 mmHg 76%
    21:00 -1°C° 0 mm 3 m/s 765 mmHg 78%
    22:00 -1°C° 0 mm 3 m/s 765 mmHg 82%
    23:00 -2°C° 0 mm 3 m/s 764 mmHg 86%

    21 Ianuarie, Luni

    Timp Temperatura Precipitaţii Vânt Presiune Umiditate
    00:00 -2°C° 0 mm 3 m/s 764 mmHg 90%
    01:00 -2°C° 0 mm 3 m/s 764 mmHg 90%
    02:00 -2°C° 0 mm 3 m/s 764 mmHg 91%
    03:00 -2°C° 0 mm 3 m/s 763 mmHg 92%
    04:00 -2°C° 0 mm 3 m/s 763 mmHg 93%
    05:00 -2°C° 0 mm 3 m/s 763 mmHg 94%
    06:00 -2°C° 0 mm 3 m/s 762 mmHg 95%
    07:00 -1°C° 0 mm 3 m/s 762 mmHg 94%
    08:00 -1°C° 0 mm 4 m/s 762 mmHg 93%
    09:00 0°C° 0 mm 4 m/s 762 mmHg 92%
    10:00 +1°C° 0 mm 5 m/s 761 mmHg 87%
    11:00 +3°C° 0 mm 5 m/s 760 mmHg 82%
    12:00 +4°C° 0 mm 6 m/s 760 mmHg 77%
    13:00 +5°C° 0 mm 6 m/s 759 mmHg 75%
    14:00 +6°C° 0 mm 5 m/s 758 mmHg 74%
    15:00 +6°C° 0 mm 5 m/s 758 mmHg 73%
    16:00 +5°C° 0 mm 4 m/s 758 mmHg 76%
    17:00 +4°C° 0 mm 4 m/s 757 mmHg 80%
    18:00 +3°C° 0 mm 3 m/s 757 mmHg 83%
    19:00 +2°C° 0 mm 3 m/s 757 mmHg 84%
    20:00 +3°C° 0 mm 2 m/s 757 mmHg 84%
    21:00 +2°C° 0 mm 2 m/s 756 mmHg 85%
    22:00 +2°C° 0 mm 2 m/s 757 mmHg 83%
    23:00 +1°C° 0 mm 3 m/s 757 mmHg 80%
    Arată mai mult